locationName,lineName,date,time,countIn,countOut
��Ƃ�̍L��,��������,2022/9/1,0:00,10,10
��Ƃ�̍L��,��������,2022/9/1,1:00,0,0
��Ƃ�̍L��,��������,2022/9/1,2:00,3,0
��Ƃ�̍L��,��������,2022/9/1,3:00,6,3
��Ƃ�̍L��,��������,2022/9/1,4:00,1,1
��Ƃ�̍L��,��������,2022/9/1,5:00,8,2
��Ƃ�̍L��,��������,2022/9/1,6:00,25,7
��Ƃ�̍L��,��������,2022/9/1,7:00,30,11
��Ƃ�̍L��,��������,2022/9/1,8:00,18,26
��Ƃ�̍L��,��������,2022/9/1,9:00,30,33
��Ƃ�̍L��,��������,2022/9/1,10:00,57,30
��Ƃ�̍L��,��������,2022/9/1,11:00,31,23
��Ƃ�̍L��,��������,2022/9/1,12:00,59,26
��Ƃ�̍L��,��������,2022/9/1,13:00,33,24
��Ƃ�̍L��,��������,2022/9/1,14:00,64,25
��Ƃ�̍L��,��������,2022/9/1,15:00,60,19
��Ƃ�̍L��,��������,2022/9/1,16:00,63,19
��Ƃ�̍L��,��������,2022/9/1,17:00,50,25
��Ƃ�̍L��,��������,2022/9/1,18:00,59,14
��Ƃ�̍L��,��������,2022/9/1,19:00,24,15
��Ƃ�̍L��,��������,2022/9/1,20:00,24,10
��Ƃ�̍L��,��������,2022/9/1,21:00,30,17
��Ƃ�̍L��,��������,2022/9/1,22:00,30,10
��Ƃ�̍L��,��������,2022/9/1,23:00,10,3
��Ƃ�̍L��,��������,2022/9/2,0:00,3,5
��Ƃ�̍L��,��������,2022/9/2,1:00,4,1
��Ƃ�̍L��,��������,2022/9/2,2:00,6,0
��Ƃ�̍L��,��������,2022/9/2,3:00,3,0
��Ƃ�̍L��,��������,2022/9/2,4:00,3,1
��Ƃ�̍L��,��������,2022/9/2,5:00,17,2
��Ƃ�̍L��,��������,2022/9/2,6:00,18,4
��Ƃ�̍L��,��������,2022/9/2,7:00,32,16
��Ƃ�̍L��,��������,2022/9/2,8:00,61,39
��Ƃ�̍L��,��������,2022/9/2,9:00,34,35
��Ƃ�̍L��,��������,2022/9/2,10:00,67,23
��Ƃ�̍L��,��������,2022/9/2,11:00,62,33
��Ƃ�̍L��,��������,2022/9/2,12:00,68,28
��Ƃ�̍L��,��������,2022/9/2,13:00,83,33
��Ƃ�̍L��,��������,2022/9/2,14:00,63,28
��Ƃ�̍L��,��������,2022/9/2,15:00,75,37
��Ƃ�̍L��,��������,2022/9/2,16:00,81,34
��Ƃ�̍L��,��������,2022/9/2,17:00,68,25
��Ƃ�̍L��,��������,2022/9/2,18:00,89,25
��Ƃ�̍L��,��������,2022/9/2,19:00,43,13
��Ƃ�̍L��,��������,2022/9/2,20:00,34,15
��Ƃ�̍L��,��������,2022/9/2,21:00,23,11
��Ƃ�̍L��,��������,2022/9/2,22:00,16,5
��Ƃ�̍L��,��������,2022/9/2,23:00,18,2
��Ƃ�̍L��,��������,2022/9/3,0:00,9,4
��Ƃ�̍L��,��������,2022/9/3,1:00,5,3
��Ƃ�̍L��,��������,2022/9/3,2:00,10,3
��Ƃ�̍L��,��������,2022/9/3,3:00,6,4
��Ƃ�̍L��,��������,2022/9/3,4:00,9,2
��Ƃ�̍L��,��������,2022/9/3,5:00,11,1
��Ƃ�̍L��,��������,2022/9/3,6:00,23,4
��Ƃ�̍L��,��������,2022/9/3,7:00,24,14
��Ƃ�̍L��,��������,2022/9/3,8:00,29,16
��Ƃ�̍L��,��������,2022/9/3,9:00,42,27
��Ƃ�̍L��,��������,2022/9/3,10:00,56,35
��Ƃ�̍L��,��������,2022/9/3,11:00,85,34
��Ƃ�̍L��,��������,2022/9/3,12:00,99,44
��Ƃ�̍L��,��������,2022/9/3,13:00,91,43
��Ƃ�̍L��,��������,2022/9/3,14:00,87,35
��Ƃ�̍L��,��������,2022/9/3,15:00,72,28
��Ƃ�̍L��,��������,2022/9/3,16:00,57,35
��Ƃ�̍L��,��������,2022/9/3,17:00,66,19
��Ƃ�̍L��,��������,2022/9/3,18:00,43,28
��Ƃ�̍L��,��������,2022/9/3,19:00,58,21
��Ƃ�̍L��,��������,2022/9/3,20:00,41,25
��Ƃ�̍L��,��������,2022/9/3,21:00,30,14
��Ƃ�̍L��,��������,2022/9/3,22:00,20,16
��Ƃ�̍L��,��������,2022/9/3,23:00,19,4
��Ƃ�̍L��,��������,2022/9/4,0:00,8,10
��Ƃ�̍L��,��������,2022/9/4,1:00,11,2
��Ƃ�̍L��,��������,2022/9/4,2:00,8,1
��Ƃ�̍L��,��������,2022/9/4,3:00,5,3
��Ƃ�̍L��,��������,2022/9/4,4:00,6,2
��Ƃ�̍L��,��������,2022/9/4,5:00,9,5
��Ƃ�̍L��,��������,2022/9/4,6:00,18,4
��Ƃ�̍L��,��������,2022/9/4,7:00,23,11
��Ƃ�̍L��,��������,2022/9/4,8:00,32,9
��Ƃ�̍L��,��������,2022/9/4,9:00,34,26
��Ƃ�̍L��,��������,2022/9/4,10:00,56,30
��Ƃ�̍L��,��������,2022/9/4,11:00,77,31
��Ƃ�̍L��,��������,2022/9/4,12:00,67,32
��Ƃ�̍L��,��������,2022/9/4,13:00,73,28
��Ƃ�̍L��,��������,2022/9/4,14:00,93,28
��Ƃ�̍L��,��������,2022/9/4,15:00,72,23
��Ƃ�̍L��,��������,2022/9/4,16:00,57,29
��Ƃ�̍L��,��������,2022/9/4,17:00,50,21
��Ƃ�̍L��,��������,2022/9/4,18:00,0,0
��Ƃ�̍L��,��������,2022/9/4,19:00,0,0
��Ƃ�̍L��,��������,2022/9/4,20:00,0,0
��Ƃ�̍L��,��������,2022/9/4,21:00,0,0
��Ƃ�̍L��,��������,2022/9/4,22:00,0,0
��Ƃ�̍L��,��������,2022/9/4,23:00,0,0
��Ƃ�̍L��,��������,2022/9/5,0:00,0,0
��Ƃ�̍L��,��������,2022/9/5,1:00,0,0
��Ƃ�̍L��,��������,2022/9/5,2:00,0,0
��Ƃ�̍L��,��������,2022/9/5,3:00,0,0
��Ƃ�̍L��,��������,2022/9/5,4:00,0,0
��Ƃ�̍L��,��������,2022/9/5,5:00,0,0
��Ƃ�̍L��,��������,2022/9/5,6:00,0,0
��Ƃ�̍L��,��������,2022/9/5,7:00,0,0
��Ƃ�̍L��,��������,2022/9/5,8:00,0,0
��Ƃ�̍L��,��������,2022/9/5,9:00,0,0
��Ƃ�̍L��,��������,2022/9/5,10:00,0,0
��Ƃ�̍L��,��������,2022/9/5,11:00,0,0
��Ƃ�̍L��,��������,2022/9/5,12:00,0,0
��Ƃ�̍L��,��������,2022/9/5,13:00,0,0
��Ƃ�̍L��,��������,2022/9/5,14:00,0,0
��Ƃ�̍L��,��������,2022/9/5,15:00,0,0
��Ƃ�̍L��,��������,2022/9/5,16:00,0,0
��Ƃ�̍L��,��������,2022/9/5,17:00,0,0
��Ƃ�̍L��,��������,2022/9/5,18:00,0,0
��Ƃ�̍L��,��������,2022/9/5,19:00,0,0
��Ƃ�̍L��,��������,2022/9/5,20:00,0,0
��Ƃ�̍L��,��������,2022/9/5,21:00,0,0
��Ƃ�̍L��,��������,2022/9/5,22:00,0,0
��Ƃ�̍L��,��������,2022/9/5,23:00,0,0
��Ƃ�̍L��,��������,2022/9/6,0:00,0,0
��Ƃ�̍L��,��������,2022/9/6,1:00,0,0
��Ƃ�̍L��,��������,2022/9/6,2:00,0,0
��Ƃ�̍L��,��������,2022/9/6,3:00,0,0
��Ƃ�̍L��,��������,2022/9/6,4:00,0,0
��Ƃ�̍L��,��������,2022/9/6,5:00,0,0
��Ƃ�̍L��,��������,2022/9/6,6:00,0,0
��Ƃ�̍L��,��������,2022/9/6,7:00,0,0
��Ƃ�̍L��,��������,2022/9/6,8:00,0,0
��Ƃ�̍L��,��������,2022/9/6,9:00,0,0
��Ƃ�̍L��,��������,2022/9/6,10:00,0,0
��Ƃ�̍L��,��������,2022/9/6,11:00,0,0
��Ƃ�̍L��,��������,2022/9/6,12:00,0,0
��Ƃ�̍L��,��������,2022/9/6,13:00,0,0
��Ƃ�̍L��,��������,2022/9/6,14:00,0,0
��Ƃ�̍L��,��������,2022/9/6,15:00,0,0
��Ƃ�̍L��,��������,2022/9/6,16:00,0,0
��Ƃ�̍L��,��������,2022/9/6,17:00,0,0
��Ƃ�̍L��,��������,2022/9/6,18:00,0,0
��Ƃ�̍L��,��������,2022/9/6,19:00,0,0
��Ƃ�̍L��,��������,2022/9/6,20:00,0,0
��Ƃ�̍L��,��������,2022/9/6,21:00,0,0
��Ƃ�̍L��,��������,2022/9/6,22:00,0,0
��Ƃ�̍L��,��������,2022/9/6,23:00,0,0
��Ƃ�̍L��,��������,2022/9/7,0:00,0,0
��Ƃ�̍L��,��������,2022/9/7,1:00,0,0
��Ƃ�̍L��,��������,2022/9/7,2:00,0,0
��Ƃ�̍L��,��������,2022/9/7,3:00,0,0
��Ƃ�̍L��,��������,2022/9/7,4:00,0,0
��Ƃ�̍L��,��������,2022/9/7,5:00,0,0
��Ƃ�̍L��,��������,2022/9/7,6:00,0,0
��Ƃ�̍L��,��������,2022/9/7,7:00,0,0
��Ƃ�̍L��,��������,2022/9/7,8:00,0,0
��Ƃ�̍L��,��������,2022/9/7,9:00,0,0
��Ƃ�̍L��,��������,2022/9/7,10:00,0,0
��Ƃ�̍L��,��������,2022/9/7,11:00,0,0
��Ƃ�̍L��,��������,2022/9/7,12:00,0,0
��Ƃ�̍L��,��������,2022/9/7,13:00,0,0
��Ƃ�̍L��,��������,2022/9/7,14:00,0,0
��Ƃ�̍L��,��������,2022/9/7,15:00,0,0
��Ƃ�̍L��,��������,2022/9/7,16:00,0,0
��Ƃ�̍L��,��������,2022/9/7,17:00,0,0
��Ƃ�̍L��,��������,2022/9/7,18:00,0,0
��Ƃ�̍L��,��������,2022/9/7,19:00,0,0
��Ƃ�̍L��,��������,2022/9/7,20:00,0,0
��Ƃ�̍L��,��������,2022/9/7,21:00,0,0
��Ƃ�̍L��,��������,2022/9/7,22:00,0,0
��Ƃ�̍L��,��������,2022/9/7,23:00,0,0
��Ƃ�̍L��,��������,2022/9/8,0:00,0,0
��Ƃ�̍L��,��������,2022/9/8,1:00,0,0
��Ƃ�̍L��,��������,2022/9/8,2:00,0,0
��Ƃ�̍L��,��������,2022/9/8,3:00,0,0
��Ƃ�̍L��,��������,2022/9/8,4:00,0,0
��Ƃ�̍L��,��������,2022/9/8,5:00,0,0
��Ƃ�̍L��,��������,2022/9/8,6:00,0,0
��Ƃ�̍L��,��������,2022/9/8,7:00,0,0
��Ƃ�̍L��,��������,2022/9/8,8:00,0,0
��Ƃ�̍L��,��������,2022/9/8,9:00,0,0
��Ƃ�̍L��,��������,2022/9/8,10:00,0,0
��Ƃ�̍L��,��������,2022/9/8,11:00,0,0
��Ƃ�̍L��,��������,2022/9/8,12:00,0,0
��Ƃ�̍L��,��������,2022/9/8,13:00,0,0
��Ƃ�̍L��,��������,2022/9/8,14:00,0,0
��Ƃ�̍L��,��������,2022/9/8,15:00,0,0
��Ƃ�̍L��,��������,2022/9/8,16:00,0,0
��Ƃ�̍L��,��������,2022/9/8,17:00,0,0
��Ƃ�̍L��,��������,2022/9/8,18:00,0,0
��Ƃ�̍L��,��������,2022/9/8,19:00,0,0
��Ƃ�̍L��,��������,2022/9/8,20:00,0,0
��Ƃ�̍L��,��������,2022/9/8,21:00,0,0
��Ƃ�̍L��,��������,2022/9/8,22:00,0,0
��Ƃ�̍L��,��������,2022/9/8,23:00,0,0
��Ƃ�̍L��,��������,2022/9/9,0:00,0,0
��Ƃ�̍L��,��������,2022/9/9,1:00,0,0
��Ƃ�̍L��,��������,2022/9/9,2:00,0,0
��Ƃ�̍L��,��������,2022/9/9,3:00,0,0
��Ƃ�̍L��,��������,2022/9/9,4:00,0,0
��Ƃ�̍L��,��������,2022/9/9,5:00,0,0
��Ƃ�̍L��,��������,2022/9/9,6:00,0,0
��Ƃ�̍L��,��������,2022/9/9,7:00,0,0
��Ƃ�̍L��,��������,2022/9/9,8:00,0,0
��Ƃ�̍L��,��������,2022/9/9,9:00,0,0
��Ƃ�̍L��,��������,2022/9/9,10:00,0,0
��Ƃ�̍L��,��������,2022/9/9,11:00,0,0
��Ƃ�̍L��,��������,2022/9/9,12:00,0,0
��Ƃ�̍L��,��������,2022/9/9,13:00,0,0
��Ƃ�̍L��,��������,2022/9/9,14:00,0,0
��Ƃ�̍L��,��������,2022/9/9,15:00,0,0
��Ƃ�̍L��,��������,2022/9/9,16:00,0,0
��Ƃ�̍L��,��������,2022/9/9,17:00,0,0
��Ƃ�̍L��,��������,2022/9/9,18:00,0,0
��Ƃ�̍L��,��������,2022/9/9,19:00,0,0
��Ƃ�̍L��,��������,2022/9/9,20:00,0,0
��Ƃ�̍L��,��������,2022/9/9,21:00,0,0
��Ƃ�̍L��,��������,2022/9/9,22:00,0,0
��Ƃ�̍L��,��������,2022/9/9,23:00,0,0
��Ƃ�̍L��,��������,2022/9/10,0:00,0,0
��Ƃ�̍L��,��������,2022/9/10,1:00,0,0
��Ƃ�̍L��,��������,2022/9/10,2:00,0,0
��Ƃ�̍L��,��������,2022/9/10,3:00,0,0
��Ƃ�̍L��,��������,2022/9/10,4:00,0,0
��Ƃ�̍L��,��������,2022/9/10,5:00,0,0
��Ƃ�̍L��,��������,2022/9/10,6:00,0,0
��Ƃ�̍L��,��������,2022/9/10,7:00,0,0
��Ƃ�̍L��,��������,2022/9/10,8:00,0,0
��Ƃ�̍L��,��������,2022/9/10,9:00,0,0
��Ƃ�̍L��,��������,2022/9/10,10:00,0,0
��Ƃ�̍L��,��������,2022/9/10,11:00,0,0
��Ƃ�̍L��,��������,2022/9/10,12:00,0,0
��Ƃ�̍L��,��������,2022/9/10,13:00,0,0
��Ƃ�̍L��,��������,2022/9/10,14:00,0,0
��Ƃ�̍L��,��������,2022/9/10,15:00,0,0
��Ƃ�̍L��,��������,2022/9/10,16:00,0,0
��Ƃ�̍L��,��������,2022/9/10,17:00,0,0
��Ƃ�̍L��,��������,2022/9/10,18:00,0,0
��Ƃ�̍L��,��������,2022/9/10,19:00,0,0
��Ƃ�̍L��,��������,2022/9/10,20:00,0,0
��Ƃ�̍L��,��������,2022/9/10,21:00,0,0
��Ƃ�̍L��,��������,2022/9/10,22:00,0,0
��Ƃ�̍L��,��������,2022/9/10,23:00,0,0
��Ƃ�̍L��,��������,2022/9/11,0:00,0,0
��Ƃ�̍L��,��������,2022/9/11,1:00,0,0
��Ƃ�̍L��,��������,2022/9/11,2:00,0,0
��Ƃ�̍L��,��������,2022/9/11,3:00,0,0
��Ƃ�̍L��,��������,2022/9/11,4:00,0,0
��Ƃ�̍L��,��������,2022/9/11,5:00,0,0
��Ƃ�̍L��,��������,2022/9/11,6:00,0,0
��Ƃ�̍L��,��������,2022/9/11,7:00,0,0
��Ƃ�̍L��,��������,2022/9/11,8:00,0,0
��Ƃ�̍L��,��������,2022/9/11,9:00,0,0
��Ƃ�̍L��,��������,2022/9/11,10:00,0,0
��Ƃ�̍L��,��������,2022/9/11,11:00,0,0
��Ƃ�̍L��,��������,2022/9/11,12:00,0,0
��Ƃ�̍L��,��������,2022/9/11,13:00,0,0
��Ƃ�̍L��,��������,2022/9/11,14:00,0,0
��Ƃ�̍L��,��������,2022/9/11,15:00,0,0
��Ƃ�̍L��,��������,2022/9/11,16:00,0,0
��Ƃ�̍L��,��������,2022/9/11,17:00,0,0
��Ƃ�̍L��,��������,2022/9/11,18:00,0,0
��Ƃ�̍L��,��������,2022/9/11,19:00,0,0
��Ƃ�̍L��,��������,2022/9/11,20:00,0,0
��Ƃ�̍L��,��������,2022/9/11,21:00,0,0
��Ƃ�̍L��,��������,2022/9/11,22:00,0,0
��Ƃ�̍L��,��������,2022/9/11,23:00,0,0
��Ƃ�̍L��,��������,2022/9/12,0:00,0,0
��Ƃ�̍L��,��������,2022/9/12,1:00,0,0
��Ƃ�̍L��,��������,2022/9/12,2:00,0,0
��Ƃ�̍L��,��������,2022/9/12,3:00,0,0
��Ƃ�̍L��,��������,2022/9/12,4:00,0,0
��Ƃ�̍L��,��������,2022/9/12,5:00,0,0
��Ƃ�̍L��,��������,2022/9/12,6:00,0,0
��Ƃ�̍L��,��������,2022/9/12,7:00,0,0
��Ƃ�̍L��,��������,2022/9/12,8:00,0,0
��Ƃ�̍L��,��������,2022/9/12,9:00,0,0
��Ƃ�̍L��,��������,2022/9/12,10:00,0,0
��Ƃ�̍L��,��������,2022/9/12,11:00,11,7
��Ƃ�̍L��,��������,2022/9/12,12:00,64,37
��Ƃ�̍L��,��������,2022/9/12,13:00,67,31
��Ƃ�̍L��,��������,2022/9/12,14:00,41,33
��Ƃ�̍L��,��������,2022/9/12,15:00,97,34
��Ƃ�̍L��,��������,2022/9/12,16:00,63,37
��Ƃ�̍L��,��������,2022/9/12,17:00,74,29
��Ƃ�̍L��,��������,2022/9/12,18:00,67,37
��Ƃ�̍L��,��������,2022/9/12,19:00,44,21
��Ƃ�̍L��,��������,2022/9/12,20:00,34,21
��Ƃ�̍L��,��������,2022/9/12,21:00,36,17
��Ƃ�̍L��,��������,2022/9/12,22:00,22,10
��Ƃ�̍L��,��������,2022/9/12,23:00,20,4
��Ƃ�̍L��,��������,2022/9/13,0:00,1,1
��Ƃ�̍L��,��������,2022/9/13,1:00,3,3
��Ƃ�̍L��,��������,2022/9/13,2:00,6,4
��Ƃ�̍L��,��������,2022/9/13,3:00,6,0
��Ƃ�̍L��,��������,2022/9/13,4:00,6,2
��Ƃ�̍L��,��������,2022/9/13,5:00,11,1
��Ƃ�̍L��,��������,2022/9/13,6:00,27,3
��Ƃ�̍L��,��������,2022/9/13,7:00,30,15
��Ƃ�̍L��,��������,2022/9/13,8:00,35,33
��Ƃ�̍L��,��������,2022/9/13,9:00,46,21
��Ƃ�̍L��,��������,2022/9/13,10:00,46,23
��Ƃ�̍L��,��������,2022/9/13,11:00,60,46
��Ƃ�̍L��,��������,2022/9/13,12:00,59,37
��Ƃ�̍L��,��������,2022/9/13,13:00,49,27
��Ƃ�̍L��,��������,2022/9/13,14:00,41,32
��Ƃ�̍L��,��������,2022/9/13,15:00,48,18
��Ƃ�̍L��,��������,2022/9/13,16:00,82,31
��Ƃ�̍L��,��������,2022/9/13,17:00,67,30
��Ƃ�̍L��,��������,2022/9/13,18:00,75,28
��Ƃ�̍L��,��������,2022/9/13,19:00,46,21
��Ƃ�̍L��,��������,2022/9/13,20:00,24,7
��Ƃ�̍L��,��������,2022/9/13,21:00,28,17
��Ƃ�̍L��,��������,2022/9/13,22:00,8,6
��Ƃ�̍L��,��������,2022/9/13,23:00,14,7
��Ƃ�̍L��,��������,2022/9/14,0:00,5,4
��Ƃ�̍L��,��������,2022/9/14,1:00,2,2
��Ƃ�̍L��,��������,2022/9/14,2:00,3,4
��Ƃ�̍L��,��������,2022/9/14,3:00,3,1
��Ƃ�̍L��,��������,2022/9/14,4:00,5,2
��Ƃ�̍L��,��������,2022/9/14,5:00,12,1
��Ƃ�̍L��,��������,2022/9/14,6:00,24,6
��Ƃ�̍L��,��������,2022/9/14,7:00,32,15
��Ƃ�̍L��,��������,2022/9/14,8:00,28,35
��Ƃ�̍L��,��������,2022/9/14,9:00,43,19
��Ƃ�̍L��,��������,2022/9/14,10:00,52,31
��Ƃ�̍L��,��������,2022/9/14,11:00,55,34
��Ƃ�̍L��,��������,2022/9/14,12:00,94,50
��Ƃ�̍L��,��������,2022/9/14,13:00,50,22
��Ƃ�̍L��,��������,2022/9/14,14:00,72,34
��Ƃ�̍L��,��������,2022/9/14,15:00,86,37
��Ƃ�̍L��,��������,2022/9/14,16:00,93,57
��Ƃ�̍L��,��������,2022/9/14,17:00,74,25
��Ƃ�̍L��,��������,2022/9/14,18:00,50,19
��Ƃ�̍L��,��������,2022/9/14,19:00,36,19
��Ƃ�̍L��,��������,2022/9/14,20:00,30,14
��Ƃ�̍L��,��������,2022/9/14,21:00,24,13
��Ƃ�̍L��,��������,2022/9/14,22:00,28,11
��Ƃ�̍L��,��������,2022/9/14,23:00,12,8
��Ƃ�̍L��,��������,2022/9/15,0:00,13,5
��Ƃ�̍L��,��������,2022/9/15,1:00,5,0
��Ƃ�̍L��,��������,2022/9/15,2:00,2,4
��Ƃ�̍L��,��������,2022/9/15,3:00,4,1
��Ƃ�̍L��,��������,2022/9/15,4:00,8,5
��Ƃ�̍L��,��������,2022/9/15,5:00,12,0
��Ƃ�̍L��,��������,2022/9/15,6:00,16,9
��Ƃ�̍L��,��������,2022/9/15,7:00,32,10
��Ƃ�̍L��,��������,2022/9/15,8:00,54,34
��Ƃ�̍L��,��������,2022/9/15,9:00,41,20
��Ƃ�̍L��,��������,2022/9/15,10:00,50,27
��Ƃ�̍L��,��������,2022/9/15,11:00,46,30
��Ƃ�̍L��,��������,2022/9/15,12:00,76,32
��Ƃ�̍L��,��������,2022/9/15,13:00,36,21
��Ƃ�̍L��,��������,2022/9/15,14:00,45,24
��Ƃ�̍L��,��������,2022/9/15,15:00,89,23
��Ƃ�̍L��,��������,2022/9/15,16:00,79,29
��Ƃ�̍L��,��������,2022/9/15,17:00,63,28
��Ƃ�̍L��,��������,2022/9/15,18:00,67,19
��Ƃ�̍L��,��������,2022/9/15,19:00,29,15
��Ƃ�̍L��,��������,2022/9/15,20:00,48,17
��Ƃ�̍L��,��������,2022/9/15,21:00,35,13
��Ƃ�̍L��,��������,2022/9/15,22:00,20,10
��Ƃ�̍L��,��������,2022/9/15,23:00,10,7
��Ƃ�̍L��,��������,2022/9/16,0:00,11,9
��Ƃ�̍L��,��������,2022/9/16,1:00,10,0
��Ƃ�̍L��,��������,2022/9/16,2:00,9,0
��Ƃ�̍L��,��������,2022/9/16,3:00,11,3
��Ƃ�̍L��,��������,2022/9/16,4:00,4,2
��Ƃ�̍L��,��������,2022/9/16,5:00,16,2
��Ƃ�̍L��,��������,2022/9/16,6:00,12,5
��Ƃ�̍L��,��������,2022/9/16,7:00,28,20
��Ƃ�̍L��,��������,2022/9/16,8:00,44,45
��Ƃ�̍L��,��������,2022/9/16,9:00,56,46
��Ƃ�̍L��,��������,2022/9/16,10:00,81,24
��Ƃ�̍L��,��������,2022/9/16,11:00,40,32
��Ƃ�̍L��,��������,2022/9/16,12:00,61,30
��Ƃ�̍L��,��������,2022/9/16,13:00,45,29
��Ƃ�̍L��,��������,2022/9/16,14:00,49,30
��Ƃ�̍L��,��������,2022/9/16,15:00,67,24
��Ƃ�̍L��,��������,2022/9/16,16:00,79,46
��Ƃ�̍L��,��������,2022/9/16,17:00,66,32
��Ƃ�̍L��,��������,2022/9/16,18:00,117,32
��Ƃ�̍L��,��������,2022/9/16,19:00,34,25
��Ƃ�̍L��,��������,2022/9/16,20:00,31,16
��Ƃ�̍L��,��������,2022/9/16,21:00,38,25
��Ƃ�̍L��,��������,2022/9/16,22:00,24,16
��Ƃ�̍L��,��������,2022/9/16,23:00,31,15
��Ƃ�̍L��,��������,2022/9/17,0:00,20,12
��Ƃ�̍L��,��������,2022/9/17,1:00,14,5
��Ƃ�̍L��,��������,2022/9/17,2:00,8,2
��Ƃ�̍L��,��������,2022/9/17,3:00,9,1
��Ƃ�̍L��,��������,2022/9/17,4:00,4,1
��Ƃ�̍L��,��������,2022/9/17,5:00,13,4
��Ƃ�̍L��,��������,2022/9/17,6:00,6,9
��Ƃ�̍L��,��������,2022/9/17,7:00,26,18
��Ƃ�̍L��,��������,2022/9/17,8:00,38,23
��Ƃ�̍L��,��������,2022/9/17,9:00,62,32
��Ƃ�̍L��,��������,2022/9/17,10:00,84,43
��Ƃ�̍L��,��������,2022/9/17,11:00,119,51
��Ƃ�̍L��,��������,2022/9/17,12:00,112,73
��Ƃ�̍L��,��������,2022/9/17,13:00,115,60
��Ƃ�̍L��,��������,2022/9/17,14:00,126,45
��Ƃ�̍L��,��������,2022/9/17,15:00,84,49
��Ƃ�̍L��,��������,2022/9/17,16:00,102,47
��Ƃ�̍L��,��������,2022/9/17,17:00,94,56
��Ƃ�̍L��,��������,2022/9/17,18:00,65,42
��Ƃ�̍L��,��������,2022/9/17,19:00,48,26
��Ƃ�̍L��,��������,2022/9/17,20:00,47,17
��Ƃ�̍L��,��������,2022/9/17,21:00,32,23
��Ƃ�̍L��,��������,2022/9/17,22:00,29,11
��Ƃ�̍L��,��������,2022/9/17,23:00,27,6
��Ƃ�̍L��,��������,2022/9/18,0:00,18,6
��Ƃ�̍L��,��������,2022/9/18,1:00,16,5
��Ƃ�̍L��,��������,2022/9/18,2:00,8,1
��Ƃ�̍L��,��������,2022/9/18,3:00,6,3
��Ƃ�̍L��,��������,2022/9/18,4:00,2,2
��Ƃ�̍L��,��������,2022/9/18,5:00,12,3
��Ƃ�̍L��,��������,2022/9/18,6:00,10,3
��Ƃ�̍L��,��������,2022/9/18,7:00,18,7
��Ƃ�̍L��,��������,2022/9/18,8:00,38,19
��Ƃ�̍L��,��������,2022/9/18,9:00,60,23
��Ƃ�̍L��,��������,2022/9/18,10:00,63,41
��Ƃ�̍L��,��������,2022/9/18,11:00,91,51
��Ƃ�̍L��,��������,2022/9/18,12:00,96,40
��Ƃ�̍L��,��������,2022/9/18,13:00,91,48
��Ƃ�̍L��,��������,2022/9/18,14:00,88,36
��Ƃ�̍L��,��������,2022/9/18,15:00,76,43
��Ƃ�̍L��,��������,2022/9/18,16:00,54,29
��Ƃ�̍L��,��������,2022/9/18,17:00,39,17
��Ƃ�̍L��,��������,2022/9/18,18:00,32,14
��Ƃ�̍L��,��������,2022/9/18,19:00,23,9
��Ƃ�̍L��,��������,2022/9/18,20:00,25,6
��Ƃ�̍L��,��������,2022/9/18,21:00,14,4
��Ƃ�̍L��,��������,2022/9/18,22:00,6,4
��Ƃ�̍L��,��������,2022/9/18,23:00,5,2
��Ƃ�̍L��,��������,2022/9/19,0:00,3,0
��Ƃ�̍L��,��������,2022/9/19,1:00,3,2
��Ƃ�̍L��,��������,2022/9/19,2:00,3,5
��Ƃ�̍L��,��������,2022/9/19,3:00,2,2
��Ƃ�̍L��,��������,2022/9/19,4:00,7,2
��Ƃ�̍L��,��������,2022/9/19,5:00,15,0
��Ƃ�̍L��,��������,2022/9/19,6:00,9,3
��Ƃ�̍L��,��������,2022/9/19,7:00,9,5
��Ƃ�̍L��,��������,2022/9/19,8:00,13,10
��Ƃ�̍L��,��������,2022/9/19,9:00,23,10
��Ƃ�̍L��,��������,2022/9/19,10:00,24,15
��Ƃ�̍L��,��������,2022/9/19,11:00,17,3
��Ƃ�̍L��,��������,2022/9/19,12:00,22,8
��Ƃ�̍L��,��������,2022/9/19,13:00,28,8
��Ƃ�̍L��,��������,2022/9/19,14:00,16,13
��Ƃ�̍L��,��������,2022/9/19,15:00,20,10
��Ƃ�̍L��,��������,2022/9/19,16:00,31,10
��Ƃ�̍L��,��������,2022/9/19,17:00,28,13
��Ƃ�̍L��,��������,2022/9/19,18:00,20,11
��Ƃ�̍L��,��������,2022/9/19,19:00,6,4
��Ƃ�̍L��,��������,2022/9/19,20:00,12,5
��Ƃ�̍L��,��������,2022/9/19,21:00,10,6
��Ƃ�̍L��,��������,2022/9/19,22:00,6,1
��Ƃ�̍L��,��������,2022/9/19,23:00,5,4
��Ƃ�̍L��,��������,2022/9/20,0:00,3,2
��Ƃ�̍L��,��������,2022/9/20,1:00,3,2
��Ƃ�̍L��,��������,2022/9/20,2:00,4,0
��Ƃ�̍L��,��������,2022/9/20,3:00,8,2
��Ƃ�̍L��,��������,2022/9/20,4:00,7,2
��Ƃ�̍L��,��������,2022/9/20,5:00,13,0
��Ƃ�̍L��,��������,2022/9/20,6:00,24,8
��Ƃ�̍L��,��������,2022/9/20,7:00,42,23
��Ƃ�̍L��,��������,2022/9/20,8:00,59,41
��Ƃ�̍L��,��������,2022/9/20,9:00,56,29
��Ƃ�̍L��,��������,2022/9/20,10:00,78,37
��Ƃ�̍L��,��������,2022/9/20,11:00,68,29
��Ƃ�̍L��,��������,2022/9/20,12:00,76,28
��Ƃ�̍L��,��������,2022/9/20,13:00,61,33
��Ƃ�̍L��,��������,2022/9/20,14:00,60,28
��Ƃ�̍L��,��������,2022/9/20,15:00,70,40
��Ƃ�̍L��,��������,2022/9/20,16:00,107,31
��Ƃ�̍L��,��������,2022/9/20,17:00,116,41
��Ƃ�̍L��,��������,2022/9/20,18:00,132,40
��Ƃ�̍L��,��������,2022/9/20,19:00,52,30
��Ƃ�̍L��,��������,2022/9/20,20:00,58,43
��Ƃ�̍L��,��������,2022/9/20,21:00,50,37
��Ƃ�̍L��,��������,2022/9/20,22:00,36,12
��Ƃ�̍L��,��������,2022/9/20,23:00,17,9
��Ƃ�̍L��,��������,2022/9/21,0:00,13,7
��Ƃ�̍L��,��������,2022/9/21,1:00,7,0
��Ƃ�̍L��,��������,2022/9/21,2:00,7,6
��Ƃ�̍L��,��������,2022/9/21,3:00,6,5
��Ƃ�̍L��,��������,2022/9/21,4:00,5,3
��Ƃ�̍L��,��������,2022/9/21,5:00,16,6
��Ƃ�̍L��,��������,2022/9/21,6:00,38,9
��Ƃ�̍L��,��������,2022/9/21,7:00,64,19
��Ƃ�̍L��,��������,2022/9/21,8:00,68,49
��Ƃ�̍L��,��������,2022/9/21,9:00,37,18
��Ƃ�̍L��,��������,2022/9/21,10:00,41,18
��Ƃ�̍L��,��������,2022/9/21,11:00,59,34
��Ƃ�̍L��,��������,2022/9/21,12:00,81,46
��Ƃ�̍L��,��������,2022/9/21,13:00,73,34
��Ƃ�̍L��,��������,2022/9/21,14:00,58,33
��Ƃ�̍L��,��������,2022/9/21,15:00,88,28
��Ƃ�̍L��,��������,2022/9/21,16:00,122,41
��Ƃ�̍L��,��������,2022/9/21,17:00,100,40
��Ƃ�̍L��,��������,2022/9/21,18:00,78,46
��Ƃ�̍L��,��������,2022/9/21,19:00,41,25
��Ƃ�̍L��,��������,2022/9/21,20:00,48,27
��Ƃ�̍L��,��������,2022/9/21,21:00,24,18
��Ƃ�̍L��,��������,2022/9/21,22:00,39,9
��Ƃ�̍L��,��������,2022/9/21,23:00,10,9
��Ƃ�̍L��,��������,2022/9/22,0:00,18,6
��Ƃ�̍L��,��������,2022/9/22,1:00,6,1
��Ƃ�̍L��,��������,2022/9/22,2:00,11,5
��Ƃ�̍L��,��������,2022/9/22,3:00,11,0
��Ƃ�̍L��,��������,2022/9/22,4:00,3,4
��Ƃ�̍L��,��������,2022/9/22,5:00,13,11
��Ƃ�̍L��,��������,2022/9/22,6:00,27,6
��Ƃ�̍L��,��������,2022/9/22,7:00,119,88
��Ƃ�̍L��,��������,2022/9/22,8:00,44,51
��Ƃ�̍L��,��������,2022/9/22,9:00,40,35
��Ƃ�̍L��,��������,2022/9/22,10:00,70,35
��Ƃ�̍L��,��������,2022/9/22,11:00,87,41
��Ƃ�̍L��,��������,2022/9/22,12:00,79,42
��Ƃ�̍L��,��������,2022/9/22,13:00,66,34
��Ƃ�̍L��,��������,2022/9/22,14:00,71,34
��Ƃ�̍L��,��������,2022/9/22,15:00,70,34
��Ƃ�̍L��,��������,2022/9/22,16:00,114,39
��Ƃ�̍L��,��������,2022/9/22,17:00,107,38
��Ƃ�̍L��,��������,2022/9/22,18:00,77,43
��Ƃ�̍L��,��������,2022/9/22,19:00,36,23
��Ƃ�̍L��,��������,2022/9/22,20:00,65,30
��Ƃ�̍L��,��������,2022/9/22,21:00,31,34
��Ƃ�̍L��,��������,2022/9/22,22:00,46,13
��Ƃ�̍L��,��������,2022/9/22,23:00,15,9
��Ƃ�̍L��,��������,2022/9/23,0:00,20,7
��Ƃ�̍L��,��������,2022/9/23,1:00,6,3
��Ƃ�̍L��,��������,2022/9/23,2:00,6,3
��Ƃ�̍L��,��������,2022/9/23,3:00,8,3
��Ƃ�̍L��,��������,2022/9/23,4:00,3,0
��Ƃ�̍L��,��������,2022/9/23,5:00,16,2
��Ƃ�̍L��,��������,2022/9/23,6:00,16,6
��Ƃ�̍L��,��������,2022/9/23,7:00,25,12
��Ƃ�̍L��,��������,2022/9/23,8:00,30,27
��Ƃ�̍L��,��������,2022/9/23,9:00,73,35
��Ƃ�̍L��,��������,2022/9/23,10:00,115,53
��Ƃ�̍L��,��������,2022/9/23,11:00,145,89
��Ƃ�̍L��,��������,2022/9/23,12:00,174,100
��Ƃ�̍L��,��������,2022/9/23,13:00,224,111
��Ƃ�̍L��,��������,2022/9/23,14:00,182,63
��Ƃ�̍L��,��������,2022/9/23,15:00,143,71
��Ƃ�̍L��,��������,2022/9/23,16:00,100,57
��Ƃ�̍L��,��������,2022/9/23,17:00,96,49
��Ƃ�̍L��,��������,2022/9/23,18:00,73,51
��Ƃ�̍L��,��������,2022/9/23,19:00,54,25
��Ƃ�̍L��,��������,2022/9/23,20:00,48,20
��Ƃ�̍L��,��������,2022/9/23,21:00,31,24
��Ƃ�̍L��,��������,2022/9/23,22:00,22,10
��Ƃ�̍L��,��������,2022/9/23,23:00,18,7
��Ƃ�̍L��,��������,2022/9/24,0:00,12,4
��Ƃ�̍L��,��������,2022/9/24,1:00,6,4
��Ƃ�̍L��,��������,2022/9/24,2:00,7,3
��Ƃ�̍L��,��������,2022/9/24,3:00,8,1
��Ƃ�̍L��,��������,2022/9/24,4:00,3,1
��Ƃ�̍L��,��������,2022/9/24,5:00,11,7
��Ƃ�̍L��,��������,2022/9/24,6:00,28,8
��Ƃ�̍L��,��������,2022/9/24,7:00,33,11
��Ƃ�̍L��,��������,2022/9/24,8:00,62,24
��Ƃ�̍L��,��������,2022/9/24,9:00,95,58
��Ƃ�̍L��,��������,2022/9/24,10:00,94,59
��Ƃ�̍L��,��������,2022/9/24,11:00,126,95
��Ƃ�̍L��,��������,2022/9/24,12:00,203,92
��Ƃ�̍L��,��������,2022/9/24,13:00,216,88
��Ƃ�̍L��,��������,2022/9/24,14:00,152,93
��Ƃ�̍L��,��������,2022/9/24,15:00,136,84
��Ƃ�̍L��,��������,2022/9/24,16:00,131,74
��Ƃ�̍L��,��������,2022/9/24,17:00,118,61
��Ƃ�̍L��,��������,2022/9/24,18:00,86,58
��Ƃ�̍L��,��������,2022/9/24,19:00,59,35
��Ƃ�̍L��,��������,2022/9/24,20:00,46,41
��Ƃ�̍L��,��������,2022/9/24,21:00,58,27
��Ƃ�̍L��,��������,2022/9/24,22:00,42,11
��Ƃ�̍L��,��������,2022/9/24,23:00,35,16
��Ƃ�̍L��,��������,2022/9/25,0:00,14,4
��Ƃ�̍L��,��������,2022/9/25,1:00,14,4
��Ƃ�̍L��,��������,2022/9/25,2:00,11,6
��Ƃ�̍L��,��������,2022/9/25,3:00,12,7
��Ƃ�̍L��,��������,2022/9/25,4:00,4,3
��Ƃ�̍L��,��������,2022/9/25,5:00,17,7
��Ƃ�̍L��,��������,2022/9/25,6:00,22,12
��Ƃ�̍L��,��������,2022/9/25,7:00,31,13
��Ƃ�̍L��,��������,2022/9/25,8:00,66,20
��Ƃ�̍L��,��������,2022/9/25,9:00,44,32
��Ƃ�̍L��,��������,2022/9/25,10:00,156,49
��Ƃ�̍L��,��������,2022/9/25,11:00,154,54
��Ƃ�̍L��,��������,2022/9/25,12:00,179,82
��Ƃ�̍L��,��������,2022/9/25,13:00,179,66
��Ƃ�̍L��,��������,2022/9/25,14:00,131,73
��Ƃ�̍L��,��������,2022/9/25,15:00,119,51
��Ƃ�̍L��,��������,2022/9/25,16:00,127,56
��Ƃ�̍L��,��������,2022/9/25,17:00,84,47
��Ƃ�̍L��,��������,2022/9/25,18:00,44,27
��Ƃ�̍L��,��������,2022/9/25,19:00,30,22
��Ƃ�̍L��,��������,2022/9/25,20:00,41,26
��Ƃ�̍L��,��������,2022/9/25,21:00,15,16
��Ƃ�̍L��,��������,2022/9/25,22:00,17,3
��Ƃ�̍L��,��������,2022/9/25,23:00,17,4
��Ƃ�̍L��,��������,2022/9/26,0:00,7,5
��Ƃ�̍L��,��������,2022/9/26,1:00,4,1
��Ƃ�̍L��,��������,2022/9/26,2:00,2,6
��Ƃ�̍L��,��������,2022/9/26,3:00,7,1
��Ƃ�̍L��,��������,2022/9/26,4:00,5,3
��Ƃ�̍L��,��������,2022/9/26,5:00,23,2
��Ƃ�̍L��,��������,2022/9/26,6:00,20,6
��Ƃ�̍L��,��������,2022/9/26,7:00,51,28
��Ƃ�̍L��,��������,2022/9/26,8:00,38,34